SJ-6G                   
1 37179U 10051A   19258.14283680  .00000462  00000-0  49004-4 0  9994
2 37179  97.6605 244.4513 0012607 232.8626 127.1413 14.93622223487125
SJ-6H                   
1 37180U 10051B   19258.15850443 -.00000380  00000-0 -30952-4 0  9997
2 37180  97.6657 243.6559 0010515 253.9136 106.0919 14.93316305487062
CZ-4B R/B               
1 37181U 10051C   19258.02439527  .00000192  00000-0  19391-4 0  9993
2 37181  97.7284 237.5694 0109246 160.3659 241.1910 14.98237448487790
CZ-4B DEB               
1 37182U 10051D   19258.18082804  .00004447  00000-0  12013-3 0  9993
2 37182  97.3729 317.5510 0002327 222.8533 137.2531 15.38280100494042
CZ-4B DEB               
1 38184U 10051E   19257.89599194  .00000451  00000-0  83548-4 0  9991
2 38184  97.8057 136.3527 0158271  38.0709 323.1552 14.62150879473390
CZ-4B DEB               
1 38326U 10051H   19256.70071921  .00000474  00000-0  10096-3 0  9993
2 38326  97.6985  64.7966 0185979 142.2295 219.2127 14.52798579461215